STARLINK-34153, 63967

Orbit data source: Space-Track

STARLINK-34153, 63967 is a payload satellite owned by SpaceX/Seattle (US) in LEO that was launched on Tue, 13 May 2025 UTC via an FALCON 9 launch vehicle from the Air Force Eastern Test Range (AFETR). Payload-class satellites include a variety of spacecraft equipped with specific instruments for various scientific and technological missions. These include communications satellites like Starlink; space stations such as the ISS; scientific satellites like the Hubble; Earth observation satellites from companies like Planet Labs, Umbra, and HawkEye 360; GPS; miniature CubeSats for education and research; and military/defense satellites.

Loading next visibility...
Identifier
63967, 2025-099R
Orbit
LEO
Country
Flag of USUS
Related business
Manufacturer
SpaceX/Seattle
Mission
Operational Commercial Communications
Bus & Motor
STARLINK V2MO, Unknown motor
Mass
575 kg wet, ~530 kg dry
Launch date (UTC)
2025-05-13 (7 months ago)
Launch vehicle
FALCON 9
Launch site
Air Force Eastern Test Range (AFETR)
Object type
Payload
Rocket body
Debris
Shape & HBR
Box + 2 Pan, 17.7 m
Radar Cross Section
36.964 m², Large (>1 m²)

Expand to show TLE details & history
Last TLE update: 20 hours ago

TLE from 20 hours ago
0 STARLINK-34153
1 63967U 25099R   25346.61849984  .00053025  00000-0  19236-2 0  9993
2 63967  43.0019 307.6292 0001359 273.7874  86.2822 15.27563153 34020
Epoch: 2025-12-12T14:50Z
TLE epoch observation values (Epoch: 2025-12-12T14:50:38.386Z)
Latitude
-0.00002°
Longitude
3.4117°
Altitude
482.815 km
Speed
7.626 km/s
True Right ascension
20h 30m 31s
True Declination
0° 00' 00"
Sunlit
Object was in daylight at epoch
Visualization orbit readout
Latitude
Unknown
Longitude
Unknown
Altitude
Unknown
Speed
Unknown
Apparent Right ascension
Unknown
Apparent Declination
Unknown
Sunlit
N/A
Visualization observer readout
Local Sidereal Time
09:41:58
Azimuth
Unknown
Elevation
Unknown
Doppler factor
Unknown
Orbital elements
Apogee altitude
485.977 km
Perigee altitude
484.112 km
Semi-major axis
6,863.181 km
Eccentricity
0.00014
Inclination
43.0019°
RAAN
307.6292°
Arg. of periapsis
273.7874°
True anomaly
86.29774°
Mean anomaly
86.2822°
Eccentric anomaly
86.28997°
Mean motion
3.81729 °/min
Orbital period
94.31 mins
BSTAR
0.0019236
Loading maneuver chart data...
Computing Atmospheric mass density...
Loading historical data...
Loading historical data...
Loading historical data...
Loading historical data...
Loading historical data...
Loading historical data...
Loading historical data...

Documentation

Showing up to 5 results
|